Powrót do katalogu

STARLINK-36499

AktywnyŁącznośćVLEO
NORAD 67359·PAYLOAD·🇺🇸 United States

Wystrzelony Jan 9, 2026 z Cape Canaveral Space Force Station

Loading…

Następne Przeloty (najbliższe 24 godziny)

TLE

ŚwieżeSource: CelesTrak SupGP

Epoka: Sep 14, 2026, 23:21 UTC

1 67359C 26003AB  26257.97340278 -.00127500  00000+0 -46270-2 0  2577
2 67359  43.0016 238.5162 0001217 265.1038 233.8132 15.27579758    18

Śledź STARLINK-36499 w czasie rzeczywistym z AllMySat

Download on the App Store